Location: Nairn
(57.5833°N, 3.8667°W)
Time: 16:38:37
(UTC+00:00)

S-56A Canister/Altair - Pass Details

Date: 26 November 2020
Orbit: 633 x 2499 km, 38.9° (Epoch: 19 January)

Event Time Altitude Azimuth Distance (km) Brightness Sun altitude
Rises 20:56:22 0° 220° (SW) 5,004 11.8 -40.4°
Enters shadow 21:00:40 - 206° (SSW) 3,844 11.0 -40.9°
Reaches altitude 10° 21:01:47 10° 201° (SSW) 3,580 - -41.0°
Maximum altitude 21:06:09 15° 170° (S) 2,853 - -41.5°
Drops below altitude 10° 21:09:49 10° 139° (SE) 2,896 - -41.9°
Sets 21:13:25 0° 115° (ESE) 3,550 - -42.4°
